Location: Grasslands National Park East Block
(49.0708°N, 106.5295°W)
Time: 05:40:26
(UTC-06:00)

Vanguard 1 - Pass Details

Date: 27 September 2019
Orbit: 653 x 3830 km, 34.2° (Epoch: 17 October)

Event Time Altitude Azimuth Distance (km) Brightness Sun altitude
Rises 02:56:49 0° 246° (WSW) 7,477 - -36.1°
Reaches altitude 10° 03:01:45 10° 241° (WSW) 6,683 - -35.6°
Exits shadow 03:17:50 46° 207° (SSW) 4,599 12.9 -33.8°
Maximum altitude 03:23:31 52° 175° (S) 4,280 12.9 -33.2°
Drops below altitude 10° 03:41:49 10° 106° (ESE) 5,728 14.3 -30.9°
Sets 03:45:37 0° 102° (ESE) 6,396 14.7 -30.5°
